{"data":{"norad_id":69980,"intl_designator":"2026-159F","name":"STARLINK-38093","alt_names":[],"object_type":"PAYLOAD","status":"ACTIVE","operator":null,"country":"US","launch_date":"2026-07-11","launch_site_code":"AFWTR","launch_vehicle":null,"mission":null,"orbit_class":"UNKNOWN","rcs_meters":null,"size_class":null,"mass_kg":null,"dimensions":null,"purposes":["comms"],"wikipedia_slug":null,"has_3d_model":false,"image_url":null,"decayed_at":null,"tle_current":{"epoch":"2026-09-20T04:00:03.000096Z","epoch_age_seconds":46598,"freshness":"FRESH","line1":"1 69980U 26159F   26263.16670139 -.02809629  00000+0 -77643-1 0  9992","line2":"2 69980  97.2864 105.1188 0001801  66.4977 305.8315 15.40617218  5996","mean_motion":15.40617218,"eccentricity":0.0001801,"inclination_deg":97.2864,"raan_deg":105.1188,"arg_perigee_deg":66.4977,"mean_anomaly_deg":305.8315,"bstar":-0.077643,"rev_number":599,"period_min":93.469031968199,"perigee_km":443.05781102898,"apogee_km":445.5152479843,"semimajor_km":6822.4235295066,"source":"CELESTRAK","updated_at":"2026-09-20T09:00:44.328728Z"}}}